{"data":{"norad_id":67131,"epoch":"2026-05-25T03:24:27.027936Z","epoch_age_seconds":58748,"freshness":"FRESH","line1":"1 67131U 25300A   26145.14197949  .00003958  00000+0  17934-3 0  9991","line2":"2 67131  97.4735 223.2153 0007145  38.1639 322.0101 15.21421174 24339","mean_motion":15.21421174,"eccentricity":0.0007145,"inclination_deg":97.4735,"raan_deg":223.2153,"arg_perigee_deg":38.1639,"mean_anomaly_deg":322.0101,"bstar":0.00017934,"rev_number":2433,"period_min":94.648347519317,"perigee_km":496.63748152714,"apogee_km":506.46855856579,"semimajor_km":6879.6900200465,"source":"CELESTRAK","updated_at":"2026-05-25T13:38:06.747540Z"}}